DW0207 Weather Reports


Display with metric or nautical units.
time (UTC)temp
F
wind
direction
speed
MPH
gust
MPH
rain 1hr
in
rain 24hr
in
rain mn
in
humidity
%
barometer
mb
20181216024642 35 277 0.0 0.0 0.00 0.00 0.00 36 1029.0
20181216023251 36 278 0.0 0.0 0.00 0.00 0.00 34 1029.0
20181216021625 37 278 0.0 7.0 0.00 0.00 0.00 34 1029.0
20181216020209 36 278 1.0 4.0 0.00 0.00 0.00 36 1029.0
20181216014643 36 278 0.0 8.0 0.00 0.00 0.00 36 1028.9
20181216013136 34 277 0.0 0.0 0.00 0.00 0.00 39 1028.8
20181216011712 35 277 2.0 4.0 0.00 0.00 0.00 39 1028.4
20181216010158 35 277 0.0 4.0 0.00 0.00 0.00 38 1028.3
20181216004644 34 278 2.0 4.0 0.00 0.00 0.00 38 1027.9
20181216003329 34 278 0.0 2.0 0.00 0.00 0.00 36 1027.5
20181216001643 36 278 0.0 3.0 0.00 0.00 0.00 36 1027.3
20181216000113 37 278 1.0 3.0 0.00 0.00 0.00 34 1027.1
20181215234741 38 277 0.0 4.0 0.00 0.00 0.00 31 1026.9
20181215233143 41 277 0.0 0.0 0.00 0.00 0.00 29 1026.6
20181215231621 45 278 0.0 0.0 0.00 0.00 0.00 25 1026.5
20181215230135 47 278 0.0 5.0 0.00 0.00 0.00 23 1026.4
20181215224659 48 278 1.0 4.0 0.00 0.00 0.00 23 1026.1
20181215223212 50 278 2.0 7.0 0.00 0.00 0.00 22 1026.0
20181215221640 50 277 2.0 8.0 0.00 0.00 0.00 21 1025.8
20181215220108 51 277 3.0 8.0 0.00 0.00 0.00 21 1025.4
20181215214643 51 278 1.0 7.0 0.00 0.00 0.00 21 1025.5
20181215213216 51 277 2.0 9.0 0.00 0.00 0.00 21 1025.5
20181215211646 50 277 0.0 4.0 0.00 0.00 0.00 21 1025.6
20181215210052 48 277 0.0 7.0 0.00 0.00 0.00 22 1025.8
20181215204619 48 277 0.0 4.0 0.00 0.00 0.00 23 1025.7
20181215203049 47 277 0.0 4.0 0.00 0.00 0.00 24 1025.9
20181215201556 47 277 0.0 4.0 0.00 0.00 0.00 24 1026.1
20181215200042 46 277 0.0 4.0 0.00 0.00 0.00 26 1026.6
20181215194538 45 277 0.0 7.0 0.00 0.00 0.00 26 1027.1
20181215193036 44 277 0.0 5.0 0.00 0.00 0.00 27 1027.5
20181215191544 43 277 2.0 8.0 0.00 0.00 0.00 28 1027.7
20181215190028 42 277 0.0 5.0 0.00 0.00 0.00 29 1027.6
20181215184550 43 277 0.0 4.0 0.00 0.00 0.00 28 1027.9
20181215183014 41 277 0.0 7.0 0.00 0.00 0.00 29 1028.4
20181215181533 40 277 1.0 4.0 0.00 0.00 0.00 33 1028.6
20181215180001 38 277 0.0 4.0 0.00 0.00 0.00 37 1029.2
20181215174625 37 277 2.0 4.0 0.00 0.00 0.00 39 1029.1
20181215173112 36 277 0.0 3.0 0.00 0.00 0.00 41 1029.1
20181215171710 34 277 0.0 0.0 0.00 0.00 0.00 44 1029.3
20181215170110 32 277 0.0 3.0 0.00 0.00 0.00 47 1029.5
20181215164554 31 277 0.0 0.0 0.00 0.00 0.00 48 1029.4
20181215163057 27 277 0.0 0.0 0.00 0.00 0.00 57 1029.5
20181215161608 24 276 0.0 0.0 0.00 0.00 0.00 59 1029.5
20181215160054 22 276 0.0 0.0 0.00 0.00 0.00 59 1029.7
20181215154616 21 277 0.0 0.0 0.00 0.00 0.00 58 1029.6
20181215153037 22 277 0.0 0.0 0.00 0.00 0.00 56 1029.8
20181215151612 23 277 0.0 0.0 0.00 0.00 0.00 54 1029.7
20181215150035 23 276 0.0 0.0 0.00 0.00 0.00 54 1029.5
20181215144603 23 277 0.0 2.0 0.00 0.00 0.00 55 1029.4
20181215143045 22 276 0.0 0.0 0.00 0.00 0.00 56 1029.7
20181215141602 22 277 0.0 0.0 0.00 0.00 0.00 56 1029.8
20181215140126 21 276 0.0 3.0 0.00 0.00 0.00 58 1029.9
20181215134557 21 276 0.0 0.0 0.00 0.00 0.00 56 1030.4
20181215131545 19 276 0.0 0.0 0.00 0.00 0.00 58 1031.0
20181215130022 19 277 0.0 0.0 0.00 0.00 0.00 58 1030.9
20181215124538 19 277 0.0 0.0 0.00 0.00 0.00 59 1030.9
20181215123059 19 277 0.0 0.0 0.00 0.00 0.00 59 1030.9
20181215121524 19 277 0.0 0.0 0.00 0.00 0.00 62 1030.7
20181215120113 18 277 0.0 0.0 0.00 0.00 0.00 64 1030.9
20181215114519 18 277 0.0 0.0 0.00 0.00 0.00 62 1030.9
20181215113030 18 276 0.0 2.0 0.00 0.00 0.00 61 1031.0
20181215111521 18 277 0.0 0.0 0.00 0.00 0.00 59 1031.0
20181215110023 19 277 0.0 0.0 0.00 0.00 0.00 60 1030.9
20181215104514 18 277 0.0 0.0 0.00 0.00 0.00 59 1031.1
20181215103010 19 277 0.0 0.0 0.00 0.00 0.00 57 1031.2
20181215101515 19 277 0.0 0.0 0.00 0.00 0.00 59 1031.1
20181215100013 18 277 0.0 0.0 0.00 0.00 0.00 61 1031.5
20181215094515 18 277 0.0 0.0 0.00 0.00 0.00 59 1031.6
20181215093003 18 277 0.0 0.0 0.00 0.00 0.00 59 1031.5
20181215090240 20 277 0.0 0.0 0.00 0.00 0.00 55 1031.7
20181215084739 22 277 0.0 0.0 0.00 0.00 0.00 52 1031.6
20181215083108 23 276 0.0 0.0 0.00 0.00 0.00 51 1031.6
20181215081616 23 277 0.0 0.0 0.00 0.00 0.00 50 1031.5
20181215080234 24 277 0.0 0.0 0.00 0.00 0.00 49 1031.5
20181215074715 24 276 1.0 4.0 0.00 0.00 0.00 51 1031.7
20181215073117 24 277 2.0 4.0 0.00 0.00 0.00 51 1032.0
20181215071631 24 277 0.0 3.0 0.00 0.00 0.00 50 1032.4
20181215070115 24 277 2.0 7.0 0.00 0.00 0.00 50 1032.6
20181215064617 24 277 1.0 4.0 0.00 0.00 0.00 51 1032.8
20181215063047 24 277 0.0 4.0 0.00 0.00 0.00 51 1032.9
20181215061559 24 277 0.0 0.0 0.00 0.00 0.00 50 1032.8
20181215060104 24 277 0.0 4.0 0.00 0.00 0.00 50 1032.9
20181215054550 24 276 0.0 4.0 0.00 0.00 0.00 50 1033.0
20181215053055 25 276 1.0 3.0 0.00 0.00 0.00 49 1033.2
20181215051608 25 276 2.0 4.0 0.00 0.00 0.00 49 1033.2
20181215050058 25 277 2.0 5.0 0.00 0.00 0.00 50 1033.5
20181215044603 25 277 0.0 4.0 0.00 0.00 0.00 49 1033.5
20181215043050 25 277 1.0 6.0 0.00 0.00 0.00 48 1033.5
20181215041604 25 277 2.0 6.0 0.00 0.00 0.00 49 1033.6
20181215040045 25 277 2.0 3.0 0.00 0.00 0.00 48 1033.5